Precipitable_Water
0.89 1.13 1.13 1.11 1.09 1.06 0.94 0.85 0.85 0.94 1.01 1.01 1.00 1.04 1.07 1.10 1.08 1.07 1.10 1.14 1.22 1.22 1.26 1.28 1.15 1.16 1.12 1.13 1.14 1.15 1.20 1.25 1.19 1.18 1.19 1.16 1.11 1.09 1.11 1.14 1.16 1.18 1.24
0.91 1.12 1.11 1.09 1.08 1.05 0.96 0.89 0.85 0.84 0.88 0.94 1.01 1.07 1.09 1.08 1.05 1.00 1.02 1.02 1.04 1.14 1.18 1.13 1.13 1.13 1.11 1.11 1.13 1.13 1.16 1.13 1.09 1.11 1.11 1.11 1.09 1.08 1.07 1.09 1.09 1.09 1.12
0.88 1.08 1.10 1.08 1.07 1.04 0.98 0.93 0.87 0.87 0.89 0.93 0.98 1.04 1.06 1.06 0.98 1.00 1.05 1.03 1.04 1.09 1.08 1.07 1.08 1.09 1.09 1.10 1.09 1.08 1.09 1.10 1.08 1.02 1.04 1.06 1.05 1.04 1.06 1.07 1.10 1.10 1.09
0.93 1.05 1.08 1.08 1.05 1.03 0.98 0.96 0.94 0.90 0.92 0.96 1.00 1.05 1.05 1.06 0.96 0.96 1.00 0.97 0.97 0.98 1.01 1.02 1.03 1.04 1.07 1.12 1.12 1.09 1.08 1.08 1.06 1.00 1.01 1.03 1.03 1.03 1.06 1.05 1.07 1.08 1.09
0.98 1.02 1.07 1.07 1.05 1.02 1.00 0.96 0.95 0.93 0.93 0.95 0.98 1.01 1.03 1.02 0.92 0.92 0.89 0.89 0.93 0.93 0.95 0.99 1.05 1.09 1.09 1.09 1.17 1.18 1.12 1.03 1.01 0.99 0.99 1.01 1.01 1.03 1.05 1.04 1.04 1.03 1.04
0.94 0.99 1.05 1.05 1.05 1.02 1.02 0.97 0.94 0.94 0.92 0.93 0.98 0.99 0.99 0.97 0.90 0.86 0.83 0.86 0.90 0.87 0.91 1.03 1.09 1.11 1.12 1.12 1.13 1.16 1.08 1.06 0.93 0.91 0.93 0.99 1.02 1.05 1.06 1.05 1.05 1.05 1.04
0.89 0.98 1.04 1.05 1.04 1.04 1.02 0.98 0.94 0.94 0.93 0.93 0.98 0.99 0.98 0.95 0.91 0.87 0.88 0.92 0.91 0.86 0.93 1.02 1.06 1.07 1.10 1.13 1.14 1.07 0.98 1.02 1.05 0.96 0.97 1.05 1.09 1.10 1.08 1.04 1.07 1.07 1.07
0.83 0.94 1.01 1.07 1.07 1.07 1.05 0.99 0.93 0.92 0.94 0.93 0.96 0.99 0.99 0.94 0.93 0.89 0.89 0.94 0.93 0.89 0.94 1.02 1.08 1.11 1.16 1.17 1.14 1.11 1.03 1.07 1.12 1.11 1.07 1.11 1.19 1.19 1.07 1.03 1.09 1.10 1.10
0.87 0.89 0.98 1.05 1.10 1.10 1.07 1.01 0.93 0.91 0.93 0.94 0.94 0.97 1.01 0.98 0.95 0.94 0.92 0.96 0.97 0.94 0.93 1.02 1.07 1.12 1.17 1.20 1.18 1.19 1.19 1.16 1.20 1.26 1.26 1.24 1.31 1.31 1.26 1.17 1.12 1.16 1.19
0.85 0.86 0.92 1.03 1.10 1.11 1.10 1.04 0.96 0.90 0.90 0.92 0.92 0.95 0.99 1.00 1.00 0.96 0.96 0.98 1.00 0.96 0.94 1.00 1.06 1.16 1.22 1.24 1.22 1.21 1.21 1.18 1.25 1.35 1.35 1.36 1.41 1.41 1.42 1.34 1.21 1.20 1.22
0.81 0.83 0.90 0.98 1.05 1.09 1.10 1.08 1.02 0.94 0.91 0.90 0.91 0.92 0.95 0.98 1.01 1.00 0.99 0.97 1.01 1.02 1.00 1.01 1.04 1.12 1.16 1.20 1.20 1.19 1.19 1.20 1.26 1.37 1.40 1.43 1.42 1.44 1.45 1.38 1.31 1.28 1.26
0.67 0.77 0.85 0.94 1.00 1.06 1.07 1.09 1.06 1.01 0.96 0.92 0.91 0.89 0.90 0.92 0.96 0.99 1.00 0.99 0.98 1.03 1.06 1.06 1.05 1.06 1.11 1.15 1.17 1.18 1.09 1.19 1.28 1.32 1.37 1.41 1.41 1.44 1.46 1.36 1.32 1.28 1.30
0.61 0.77 0.88 0.93 1.02 1.02 1.01 1.05 1.06 1.04 0.99 0.94 0.90 0.89 0.86 0.87 0.93 0.98 1.02 1.04 1.01 1.02 1.04 1.08 1.10 1.09 1.06 1.10 1.10 1.07 1.10 1.20 1.29 1.28 1.32 1.34 1.36 1.36 1.42 1.41 1.35 1.33 1.36
0.57 0.75 0.88 0.98 1.00 1.04 1.06 1.02 1.00 1.01 1.00 0.96 0.92 0.91 0.86 0.82 0.87 0.91 0.96 1.00 1.00 0.99 0.97 0.99 1.00 1.06 1.08 1.10 1.09 1.02 1.08 1.18 1.25 1.29 1.31 1.33 1.35 1.34 1.42 1.45 1.39 1.36 1.35
0.59 0.66 0.83 0.95 0.99 1.01 1.03 1.04 1.01 0.97 1.00 0.99 0.97 0.95 0.89 0.83 0.82 0.86 0.90 0.97 0.99 1.00 0.96 0.94 0.96 0.96 0.99 1.04 1.06 1.03 1.07 1.14 1.18 1.26 1.30 1.32 1.32 1.37 1.46 1.46 1.42 1.40 1.40
0.68 0.68 0.78 0.88 0.96 1.00 1.01 1.02 1.01 1.02 0.98 1.00 0.99 0.97 0.96 0.87 0.83 0.85 0.85 0.88 0.93 0.99 0.97 0.95 0.93 0.93 0.94 0.98 0.95 0.97 1.00 1.16 1.22 1.26 1.29 1.30 1.30 1.32 1.36 1.41 1.42 1.43 1.46
0.64 0.77 0.75 0.83 0.94 0.97 0.99 1.02 1.03 1.03 1.04 0.97 0.99 1.01 0.99 0.97 0.91 0.88 0.88 0.88 0.90 0.93 0.94 0.96 0.97 0.98 0.95 0.95 0.91 0.91 0.92 1.06 1.19 1.23 1.22 1.25 1.28 1.27 1.30 1.34 1.38 1.42 1.47
0.75 0.72 0.83 0.89 0.92 0.95 0.95 0.99 1.03 1.03 1.03 1.03 1.00 1.01 1.02 1.00 0.99 0.96 0.94 0.95 0.98 0.98 0.96 0.90 0.89 0.88 0.89 0.89 0.87 0.88 0.90 0.93 1.09 1.18 1.22 1.22 1.24 1.26 1.29 1.34 1.38 1.44 1.48
0.76 0.80 0.78 0.84 0.87 0.95 1.01 1.02 1.04 1.06 1.05 1.05 1.06 1.03 1.02 1.02 1.02 0.98 0.98 1.03 1.07 1.06 1.04 1.01 0.96 0.93 0.89 0.89 0.87 0.87 0.93 0.98 1.04 1.17 1.21 1.26 1.29 1.31 1.37 1.43 1.43 1.47 1.49
0.71 0.79 0.86 0.88 0.90 0.99 1.06 1.07 1.07 1.06 1.07 1.07 1.04 1.03 1.05 1.06 1.05 1.02 1.01 1.03 1.10 1.10 1.10 1.13 1.10 1.10 1.07 1.10 1.03 0.94 0.99 1.06 1.14 1.21 1.25 1.32 1.37 1.39 1.45 1.50 1.52 1.52 1.52
0.59 0.71 0.77 0.82 0.86 0.94 0.94 0.91 0.92 0.87 0.98 1.02 1.04 1.05 1.04 1.07 1.08 1.05 1.03 1.05 1.09 1.09 1.13 1.18 1.21 1.19 1.18 1.25 1.12 1.10 1.10 1.19 1.20 1.24 1.33 1.34 1.36 1.41 1.49 1.54 1.56 1.57 1.56
0.29 0.46 0.61 0.67 0.78 0.81 0.86 0.85 0.93 0.94 1.02 1.09 1.09 1.06 1.05 1.06 1.08 1.08 1.07 1.06 1.10 1.09 1.14 1.19 1.24 1.22 1.25 1.34 1.16 1.16 1.03 1.13 1.22 1.28 1.33 1.34 1.37 1.45 1.48 1.54 1.58 1.59 1.61
0.20 0.23 0.34 0.48 0.60 0.67 0.73 0.86 0.93 0.99 1.02 1.00 1.00 0.99 1.03 1.10 1.11 1.12 1.14 1.15 1.19 1.21 1.15 1.21 1.26 1.26 1.22 1.36 1.42 1.27 1.07 0.96 1.16 1.29 1.33 1.40 1.41 1.44 1.49 1.54 1.58 1.59 1.60
0.22 0.30 0.32 0.46 0.52 0.58 0.72 0.74 0.76 0.74 0.70 0.79 0.88 1.00 1.06 1.13 1.14 1.20 1.25 1.29 1.32 1.36 1.31 1.30 1.38 1.34 1.38 1.29 1.44 1.46 1.41 1.29 1.09 1.05 1.31 1.41 1.49 1.49 1.52 1.54 1.57 1.57 1.58
0.23 0.24 0.36 0.45 0.55 0.62 0.65 0.69 0.71 0.76 0.80 0.87 0.94 1.00 1.08 1.12 1.20 1.27 1.32 1.36 1.36 1.43 1.49 1.50 1.49 1.45 1.43 1.41 1.39 1.41 1.41 1.38 1.37 1.26 1.14 1.28 1.44 1.52 1.57 1.56 1.56 1.52 1.46
0.22 0.22 0.28 0.40 0.49 0.60 0.66 0.67 0.68 0.71 0.78 0.79 0.87 0.92 0.96 1.06 1.17 1.27 1.35 1.39 1.42 1.46 1.53 1.59 1.61 1.56 1.53 1.50 1.51 1.51 1.44 1.38 1.35 1.34 1.28 1.30 1.34 1.47 1.58 1.58 1.58 1.51 1.46
Wind_Speed
7 9 10 11 12 12 13 13 14 14 14 14 14 14 13 13 13 13 13 14 14 14 14 15 15 16 16 17 17 17 17 16 17 16 16 17 17 17 17 18 18 19 19
9 10 10 11 11 12 12 13 13 14 14 14 14 13 13 13 13 13 14 14 15 15 15 15 16 16 17 17 17 16 16 16 16 16 16 16 16 17 17 17 17 18 17
10 10 10 10 11 11 12 12 13 13 13 13 13 13 13 13 13 14 14 14 15 15 16 16 16 17 17 17 17 16 16 16 16 16 16 16 16 16 16 16 16 16 15
10 10 10 10 10 10 11 11 12 12 13 13 13 13 13 13 13 13 14 14 15 15 16 16 16 16 16 16 16 16 15 15 14 15 15 15 14 14 14 14 13 13 12
10 10 10 10 10 10 10 10 11 11 12 12 12 12 12 12 12 13 13 14 14 15 15 16 16 16 15 15 14 13 13 12 12 12 12 12 12 12 11 11 10 10 9
9 10 10 10 9 9 9 9 9 10 10 11 11 11 11 12 12 12 13 13 13 13 14 14 14 14 13 12 11 11 10 10 10 10 10 10 10 10 9 9 8 8 7
9 9 10 9 9 8 8 8 8 9 9 9 10 10 10 11 11 11 11 11 12 12 12 12 12 11 11 10 9 9 9 9 9 9 9 9 9 8 7 7 6 6 6
8 9 9 9 8 8 7 7 8 8 8 8 8 9 9 10 10 10 10 11 11 11 11 11 11 10 10 9 8 8 8 7 7 7 7 7 7 7 6 5 5 5 4
7 8 8 8 8 7 7 7 7 7 7 7 8 8 8 8 9 10 10 10 10 10 10 10 10 9 9 8 8 8 7 7 6 6 6 6 6 6 5 4 3 3 2
6 6 7 8 8 7 7 7 7 7 7 7 7 7 7 8 8 8 9 9 10 10 9 9 9 8 7 6 6 6 6 6 5 4 3 3 3 3 3 3 2 1 1
5 6 7 8 8 7 7 7 7 7 7 8 8 8 7 7 7 8 8 9 9 9 9 8 8 7 5 5 4 4 3 3 2 2 2 1 1 1 2 3 3 3 2
6 6 7 8 9 8 7 7 7 7 7 7 8 9 8 8 7 7 8 8 8 8 8 7 7 6 5 4 3 2 2 1 1 1 2 2 2 2 3 3 3 3 2
6 6 7 8 9 9 8 8 7 7 7 7 8 9 10 9 9 9 9 9 9 9 9 8 8 7 6 5 5 5 4 4 4 4 3 4 4 4 4 3 3 3 3
7 8 8 9 9 10 9 9 9 9 8 8 8 9 10 11 11 11 11 11 11 11 11 11 10 10 9 8 8 8 7 7 7 6 6 7 7 6 6 5 5 5 5
9 10 11 11 11 11 11 11 11 11 11 10 9 10 10 11 12 13 14 14 14 13 13 13 13 12 12 12 11 11 10 10 10 9 9 9 9 9 9 9 9 9 9
12 12 12 13 13 13 13 13 13 13 13 12 12 12 11 12 12 14 15 17 17 17 17 16 16 16 15 15 15 14 14 13 13 12 11 12 12 13 12 12 12 12 12
16 14 15 15 14 15 15 15 15 15 15 15 15 14 14 14 14 15 16 17 19 20 20 20 20 19 19 18 18 18 17 17 17 16 16 15 16 16 16 16 17 17 16
19 18 18 17 17 17 17 16 17 17 17 17 17 17 17 17 16 17 17 18 19 20 22 23 23 23 23 22 22 22 21 21 20 20 20 19 18 19 19 20 19 19 19
24 23 21 21 20 20 19 18 18 19 19 18 18 18 19 19 19 19 20 20 21 22 23 24 25 26 26 26 26 25 25 24 24 23 23 22 22 22 22 22 22 21 21
27 26 25 24 23 22 21 21 20 20 20 20 19 19 19 20 21 22 22 23 23 23 24 25 25 26 27 28 28 28 28 28 27 26 26 25 25 24 24 23 23 23 24
29 28 28 28 26 24 23 23 22 22 22 21 21 20 20 21 21 23 24 25 26 26 26 27 26 27 28 28 28 29 30 30 30 30 29 29 28 27 26 26 26 26 25
30 30 29 29 28 27 25 25 22 22 22 22 22 22 22 21 22 22 23 24 26 28 28 28 28 27 28 29 27 27 28 29 32 32 31 31 31 30 29 28 27 27 27
27 28 28 29 29 29 28 25 24 21 21 22 23 23 23 24 24 24 24 24 25 27 28 29 30 30 29 29 30 27 25 27 26 28 31 31 31 30 30 29 29 28 28
28 28 29 29 30 30 30 28 28 26 23 23 23 23 24 25 25 25 25 25 25 26 27 29 29 30 31 30 29 31 31 28 27 27 28 29 31 31 30 30 30 30 29
30 31 31 31 32 32 32 31 30 29 27 25 24 24 24 25 26 26 26 26 26 26 27 28 29 31 31 31 31 30 31 32 32 31 31 31 32 33 33 31 30 29 28
30 29 30 31 34 35 34 34 32 31 29 27 26 25 25 25 25 26 26 27 27 27 27 28 29 31 32 33 32 32 32 31 31 31 32 32 33 33 33 30 28 29 29
Wind_Direction
118 120 113 105 97 94 93 92 94 96 100 102 104 105 105 105 104 103 105 107 108 107 106 105 104 104 103 102 102 101 100 98 96 94 92 92 92 92 93 94 94 94 93
126 127 121 112 105 98 98 96 96 98 100 103 106 106 106 106 106 106 107 107 109 109 108 107 106 105 104 103 102 100 99 98 95 94 93 93 93 93 95 95 95 95 94
132 131 127 119 112 105 102 101 101 101 102 103 106 108 107 107 106 108 109 109 109 110 110 109 109 107 106 104 101 100 98 97 95 93 94 94 93 93 95 95 95 94 93
136 136 133 126 119 113 108 106 106 104 104 105 106 108 108 108 108 110 111 111 111 111 112 111 111 110 108 105 102 100 98 97 95 94 95 94 94 94 94 94 94 94 92
139 140 138 133 126 120 115 112 110 110 107 107 107 108 110 111 111 113 114 115 114 115 116 115 114 112 109 107 102 99 97 96 96 95 95 93 93 94 93 92 92 91 89
139 143 143 140 134 127 124 120 117 115 112 110 108 108 110 113 115 116 117 118 118 119 119 120 119 117 114 112 103 98 98 97 97 97 97 95 94 94 93 91 90 88 85
139 144 147 146 142 137 132 132 127 123 120 117 114 112 112 117 120 122 123 123 124 125 125 126 124 121 117 112 109 100 99 99 103 101 100 95 93 92 91 90 87 83 81
139 146 150 153 151 146 144 141 143 138 133 128 125 122 119 120 125 127 129 129 129 129 129 130 130 127 121 114 107 102 102 98 105 105 100 96 91 86 83 87 85 80 78
140 150 156 160 160 158 156 154 154 156 152 146 141 136 131 129 132 134 136 136 136 135 134 135 134 131 125 116 107 102 98 96 104 114 106 99 94 84 75 75 76 72 70
145 159 168 169 167 168 167 166 166 166 171 167 162 156 149 143 143 144 144 144 144 143 140 141 140 138 132 123 117 110 104 102 93 113 122 113 100 71 55 42 25 9 0
165 174 179 181 179 177 177 176 176 178 180 183 181 177 171 166 161 159 158 158 157 156 154 154 154 154 150 143 137 127 117 106 88 99 151 161 159 356 354 355 342 325 310
192 193 192 192 193 190 188 187 187 188 190 192 195 195 191 188 184 180 179 178 178 176 174 173 174 176 178 184 188 191 205 240 275 295 239 231 245 289 321 325 327 315 290
200 201 196 198 200 202 203 200 199 200 200 200 202 205 206 205 204 202 200 201 201 201 201 203 205 208 213 220 227 234 244 254 265 269 265 247 252 270 294 302 311 309 280
217 213 210 209 211 211 212 214 213 212 211 211 211 211 214 217 218 219 219 218 218 220 222 224 225 228 233 238 244 249 253 258 260 267 269 257 256 263 276 278 290 290 281
229 228 223 220 221 221 223 224 223 224 223 222 220 220 222 225 228 228 229 230 231 231 233 234 236 239 241 246 250 254 257 257 259 264 268 262 258 262 269 271 278 279 279
236 235 229 229 229 228 231 232 232 230 230 230 231 231 231 233 235 236 237 238 238 238 239 240 242 245 248 250 252 255 256 257 260 261 265 265 260 264 266 270 273 275 277
240 237 233 232 234 235 237 238 237 236 235 235 237 238 239 240 242 243 244 244 244 243 244 245 246 248 251 253 255 257 257 258 260 261 263 267 265 265 267 269 272 273 275
243 240 238 238 238 239 241 241 241 239 239 240 242 243 244 246 247 249 251 250 249 248 248 249 250 251 253 254 256 258 259 259 259 261 264 265 267 268 268 270 272 273 274
244 242 240 240 241 241 242 243 243 241 242 243 245 247 248 250 251 253 255 254 253 253 253 253 253 254 255 256 258 259 259 259 259 261 262 265 267 270 270 270 271 272 275
245 243 242 242 243 243 243 243 244 244 244 245 247 249 250 253 255 257 258 258 256 256 256 256 256 256 257 258 258 259 260 260 260 261 262 264 266 268 269 270 271 273 275
244 242 242 242 242 242 242 240 242 243 243 245 247 250 253 256 258 259 261 260 258 258 258 258 258 259 258 259 261 261 261 260 261 262 262 263 265 266 267 269 271 273 275
241 241 243 242 239 240 241 240 242 242 244 245 248 252 255 259 261 262 264 264 261 259 259 258 258 260 261 259 261 264 265 264 262 261 262 264 264 265 265 267 270 272 274
241 240 242 241 238 238 238 238 240 243 245 247 250 253 257 260 263 265 266 266 264 261 261 260 258 258 260 261 259 261 266 264 265 264 262 263 264 265 264 265 267 271 273
245 244 245 243 240 238 237 237 238 240 244 249 252 255 259 261 265 267 267 267 266 264 262 262 260 259 259 261 261 261 264 265 265 267 264 266 265 263 263 265 267 270 274
250 249 247 246 243 240 239 238 239 241 246 252 254 257 260 263 264 266 267 267 267 267 266 264 262 259 259 260 261 264 265 265 265 266 268 270 271 267 264 264 265 268 274
250 250 248 249 246 240 239 239 239 240 245 250 253 256 261 264 265 266 267 268 269 268 267 267 265 261 260 260 262 263 265 267 267 269 272 274 274 272 266 262 266 270 274